Regional Weather Roundup
Issued by NWS

Home | Current Version | Previous Version | Text Only | Print | Product List | Glossary Off
Versions: 1 2 3 4 5 6 7 8 9 10 11 12 13 14 15 16 17 18 19 20 21 22 23 24 25 26 27 28 29 30 31 32 33 34 35 36 37 38 39 40 41 42 43 44 45 46 47 48 49 50

000
ASUS44 KMEG 281300
RWRTN
TENNESSEE HOURLY STATE WEATHER ROUNDUP
NATIONAL WEATHER SERVICE MEMPHIS TN
700 AM CST SUN DEC 28 2014

TNZ002-004-019-021-049-052-054-088>092-281400-
WEST TENNESSEE

CITY           SKY/WX    TMP DP  RH WIND       PRES   REMARKS
MEMPHIS INTL   CLOUDY    40  37  89 N12       30.19R WCI  33
NWS MEMPHIS      N/A     39 N/A N/A MISG        N/A
JACKSON        CLOUDY    39  37  92 N12       30.18S WCI  32
DYERSBURG      CLOUDY    37  27  65 N5        30.23R WCI  34
UNION CITY     CLOUDY    36  36 100 N8        30.18R WCI  29
PARIS          CLOUDY    36  34  93 NE7       30.15F WCI  30
LEXINGTON      CLOUDY    39  37  93 N6        30.14F WCI  35
SAVANNAH       CLOUDY    39  39 100 N8        30.14R WCI  34
$$

TNZ008-025-027-028-033-062-065-066-281400-
NORTH MIDDLE TENNESSEE

CITY           SKY/WX    TMP DP  RH WIND       PRES   REMARKS
NASHVILLE      LGT RAIN  41  40  96 N9        30.15R FOG
CLARKSVILLE    CLOUDY    39  35  86 N5        30.16S
COOKEVILLE     CLOUDY    48  48 100 NW3       30.08R
CROSSVILLE     CLOUDY    49  46  90 W5        30.06F
$$

TNZ061-075-076-078-094-096-097-281400-
SOUTH MIDDLE TENNESSEE

CITY           SKY/WX    TMP DP  RH WIND       PRES   REMARKS
FAYETTEVILLE   CLOUDY    48  46  93 N5        30.08R
TULLAHOMA      CLOUDY    48  48 100 NE5       30.07S
WINCHESTER     CLOUDY    50  48  93 CALM      30.10R
SHELBYVILLE    CLOUDY    50  48  93 N7        30.11R
$$

TNZ017-018-042-046-047-281400-
NORTHEAST TENNESSEE

CITY           SKY/WX    TMP DP  RH WIND       PRES   REMARKS
TRI CITIES     CLOUDY    47  42  83 CALM      30.06F
ELIZABETHTON   PTSUNNY   45  37  76 CALM      30.06S
$$

TNZ012-013-036-069-073-074-281400-
CENTRAL EAST TENNESSEE

CITY           SKY/WX    TMP DP  RH WIND       PRES   REMARKS
KNOXVILLE      CLOUDY    48  44  86 CALM      30.05S
OAK RIDGE      LGT RAIN  52  51  97 SW3       30.07R FOG
GATLINBURG     PTSUNNY   45  39  81 CALM      30.05R
$$

TNZ083-085-099-281400-
SOUTHEAST TENNESSEE

CITY           SKY/WX    TMP DP  RH WIND       PRES   REMARKS
CHATTANOOGA    LGT RAIN  52  51  97 CALM      30.07R FOG
$$

SKY/WX REPORTED AS FAIR MEANS FEW OR NO CLOUDS BELOW
12 THOUSAND FEET.



USA.gov is the U.S. government's official web portal to all federal, state and local government web resources and services.